EW3989 Weather Reports


Display with metric or nautical units.
time (UTC)temp
F
wind
direction
speed
MPH
gust
MPH
rain 1hr
in
rain 24hr
in
rain mn
in
humidity
%
barometer
mb
20260510015019 49 0.0 0.0 0.00 0.00 0.00 45 1010.3
20260510014036 50 0.0 0.0 0.00 0.00 0.00 43 1010.0
20260510013019 50 0.0 1.0 0.00 0.00 0.00 43 1009.7
20260510012018 51 0.0 1.0 0.00 0.00 0.00 42 1009.5
20260510011028 52 0.0 1.0 0.00 0.00 0.00 40 1009.2
20260510010019 52 0.0 2.0 0.00 0.00 0.00 40 1008.9
20260510005019 53 0.0 1.0 0.00 0.00 0.00 39 1008.8
20260510004039 54 0.0 0.0 0.00 0.00 0.00 39 1008.7
20260510003019 54 0.0 2.0 0.00 0.00 0.00 38 1008.5
20260510002018 54 0.0 1.0 0.00 0.00 0.00 39 1008.4
20260510001027 55 0.0 3.0 0.00 0.00 0.00 35 1008.2
20260510000018 55 0.0 2.0 0.00 0.00 0.00 38 1007.9
20260509235028 55 0.0 4.0 0.00 0.00 0.00 36 1007.8
20260509234020 56 0.0 3.0 0.00 0.00 0.00 34 1007.6
20260509233019 57 0.0 1.0 0.00 0.00 0.00 36 1007.4
20260509232018 57 23 1.0 4.0 0.00 0.00 0.00 34 1007.2
20260509231019 58 0.0 0.0 0.00 0.00 0.00 33 1007.2
20260509230027 58 0.0 1.0 0.00 0.00 0.00 34 1007.0
20260509225047 58 0.0 7.0 0.00 0.00 0.00 33 1006.8
20260509224018 59 0 1.0 7.0 0.00 0.00 0.00 33 1006.9
20260509223027 59 0.0 3.0 0.00 0.00 0.00 34 1006.6
20260509222020 59 0.0 3.0 0.00 0.00 0.00 34 1006.5
20260509221044 58 0.0 4.0 0.00 0.00 0.00 35 1006.4
20260509220018 59 0.0 2.0 0.00 0.00 0.00 34 1006.3
20260509215027 60 225 1.0 4.0 0.00 0.00 0.00 34 1006.2
20260509214018 59 0.0 2.0 0.00 0.00 0.00 37 1006.4
20260509213018 60 0.0 3.0 0.00 0.00 0.00 36 1006.2
20260509212035 61 0.0 6.0 0.00 0.00 0.00 34 1006.1
20260509211020 61 0.0 6.0 0.00 0.00 0.00 35 1006.1
20260509210038 61 225 1.0 3.0 0.00 0.00 0.00 35 1005.8
20260509205018 59 0.0 4.0 0.00 0.00 0.00 37 1005.6
20260509204047 58 225 1.0 7.0 0.00 0.00 0.00 39 1005.6
20260509203044 59 0.0 3.0 0.00 0.00 0.00 41 1005.3
20260509202038 59 0.0 3.0 0.00 0.00 0.00 39 1005.2
20260509201029 62 0.0 4.0 0.00 0.00 0.00 39 1005.2
20260509200018 61 0.0 2.0 0.00 0.00 0.00 38 1005.1
20260509195031 63 225 1.0 9.0 0.00 0.00 0.00 37 1004.9
20260509194018 63 45 1.0 6.0 0.00 0.00 0.00 44 1005.1
20260509193018 62 0.0 4.0 0.00 0.00 0.00 41 1004.9
20260509192037 60 45 1.0 7.0 0.00 0.00 0.00 43 1004.9
20260509191018 58 0.0 6.0 0.00 0.00 0.00 46 1005.0
20260509190027 60 338 1.0 4.0 0.00 0.00 0.00 43 1004.8
20260509185038 58 0.0 3.0 0.00 0.00 0.00 48 1004.7
20260509184020 59 0.0 5.0 0.00 0.00 0.00 44 1004.6
20260509183020 58 0.0 3.0 0.00 0.00 0.00 46 1004.6
20260509182020 59 68 1.0 8.0 0.00 0.00 0.00 48 1004.5
20260509181039 59 0.0 3.0 0.00 0.00 0.00 49 1004.4
20260509180027 58 225 1.0 5.0 0.00 0.00 0.00 52 1004.3
20260509175020 59 0.0 4.0 0.00 0.00 0.00 51 1004.1
20260509174020 59 0.0 2.0 0.00 0.00 0.00 54 1004.2
20260509173322 58 248 1.0 9.0 0.00 0.00 0.00 50 1003.8
20260509172020 59 0.0 3.0 0.00 0.00 0.00 55 1004.1
20260509171029 59 0.0 2.0 0.00 0.00 0.00 56 1004.0
20260509170030 58 0.0 7.0 0.00 0.00 0.00 55 1004.1
20260509165018 59 0.0 3.0 0.00 0.00 0.00 53 1004.0
20260509164020 57 0.0 3.0 0.00 0.00 0.00 58 1003.9
20260509163020 58 0.0 11.0 0.00 0.00 0.00 57 1003.9
20260509162029 56 0.0 6.0 0.00 0.00 0.00 62 1003.8
20260509161020 55 0.0 2.0 0.00 0.00 0.00 67 1003.5
20260509155028 55 0.0 4.0 0.00 0.00 0.00 67 1003.3
20260509154029 54 0.0 0.0 0.00 0.00 0.00 68 1003.2
20260509153020 51 0.0 2.0 0.00 0.00 0.00 71 1003.1
20260509152018 50 0.0 2.0 0.00 0.00 0.00 72 1003.1
20260509151020 50 0.0 1.0 0.00 0.00 0.00 71 1002.9
20260509150020 50 0.0 0.0 0.00 0.00 0.00 72 1002.9
20260509145020 50 0.0 0.0 0.00 0.00 0.00 71 1002.9
20260509144020 50 0.0 1.0 0.00 0.00 0.00 69 1002.7
20260509143031 51 0.0 0.0 0.00 0.00 0.00 64 1002.8
20260509142019 51 0.0 1.0 0.00 0.00 0.00 63 1002.7
20260509141028 52 0.0 0.0 0.00 0.00 0.00 61 1002.5
20260509140040 52 0.0 2.0 0.00 0.00 0.00 58 1002.4
20260509135031 51 0.0 0.0 0.00 0.00 0.00 59 1002.1
20260509134100 51 0.0 1.0 0.00 0.00 0.00 61 1002.4
20260509133028 51 0.0 3.0 0.00 0.00 0.00 58 1002.5
20260509132019 50 0.0 5.0 0.00 0.00 0.00 58 1002.3
20260509131040 50 0.0 0.0 0.00 0.00 0.00 61 1002.2
20260509130029 49 0.0 0.0 0.00 0.00 0.00 60 1002.4
20260509125037 49 0.0 0.0 0.00 0.00 0.00 62 1002.5
20260509124029 48 0.0 1.0 0.00 0.00 0.00 66 1002.2
20260509123020 47 0.0 1.0 0.00 0.00 0.00 67 1002.1
20260509122048 46 0.0 0.0 0.00 0.00 0.00 68 1001.9
20260509121048 46 0.0 0.0 0.00 0.00 0.00 67 1001.7
20260509120048 46 0.0 0.0 0.00 0.00 0.00 69 1001.5
20260509115019 45 0.0 0.0 0.00 0.00 0.00 69 1001.2
20260509114019 45 0.0 0.0 0.00 0.00 0.00 69 1001.0
20260509113028 45 0.0 0.0 0.00 0.00 0.00 70 1000.8
20260509112049 45 0.0 0.0 0.00 0.00 0.00 71 1000.8
20260509111040 45 0.0 0.0 0.00 0.00 0.00 70 1000.5
20260509110036 45 0.0 0.0 0.00 0.00 0.00 70 1000.5
20260509105020 44 0.0 0.0 0.00 0.00 0.00 71 1000.5
20260509104020 44 0.0 0.0 0.00 0.00 0.00 71 1000.3
20260509103100 44 0.0 0.0 0.00 0.00 0.00 68 1000.2
20260509102040 44 0.0 0.0 0.00 0.00 0.00 69 1000.3
20260509101048 45 0.0 0.0 0.00 0.00 0.00 67 1000.1
20260509100020 45 0.0 0.0 0.00 0.00 0.00 66 1000.2
20260509095019 46 0.0 0.0 0.00 0.00 0.00 61 1000.3
20260509094028 46 0.0 0.0 0.00 0.00 0.00 61 1000.3
20260509093028 47 0.0 0.0 0.00 0.00 0.00 60 1000.5
20260509092039 47 0.0 0.0 0.00 0.00 0.00 60 1000.6
20260509091047 47 0.0 0.0 0.00 0.00 0.00 60 1000.7
20260509090049 48 0.0 0.0 0.00 0.00 0.00 60 1000.6
20260509085028 48 0.0 0.0 0.00 0.00 0.00 60 1000.3
20260509084040 48 0.0 1.0 0.00 0.00 0.00 61 1000.2
20260509083045 48 0.0 0.0 0.00 0.00 0.00 61 1000.1
20260509082057 48 0.0 2.0 0.00 0.00 0.00 63 1000.3
20260509081036 47 0.0 0.0 0.00 0.00 0.00 64 1000.3
20260509080037 47 0.0 0.0 0.00 0.00 0.00 62 1000.0
20260509075019 47 0.0 3.0 0.00 0.00 0.00 65 999.8
20260509074019 46 0.0 0.0 0.00 0.00 0.00 68 999.7
20260509073028 45 0.0 0.0 0.00 0.00 0.00 71 999.6
20260509072039 44 0.0 0.0 0.00 0.00 0.00 77 999.7
20260509071019 44 0.0 0.0 0.00 0.00 0.00 78 999.6
20260509070037 44 0.0 0.0 0.00 0.00 0.00 77 999.6
20260509065039 45 0.0 0.0 0.00 0.00 0.00 72 999.5
20260509064019 45 0.0 0.0 0.00 0.00 0.00 73 999.5
20260509063048 45 0.0 0.0 0.00 0.00 0.00 73 999.7
20260509062019 44 0.0 0.0 0.00 0.00 0.00 75 999.8
20260509061028 44 0.0 0.0 0.00 0.00 0.00 73 999.9
20260509060020 45 0.0 0.0 0.00 0.00 0.00 72 1000.0
20260509055030 45 0.0 0.0 0.00 0.00 0.00 70 1000.0
20260509054019 45 0.0 0.0 0.00 0.00 0.00 72 1000.1
20260509053019 46 0.0 0.0 0.00 0.00 0.00 70 1000.2
20260509052019 46 0.0 0.0 0.00 0.00 0.00 69 1000.5
20260509051039 47 0.0 0.0 0.00 0.00 0.00 66 1000.6
20260509050027 47 0.0 0.0 0.00 0.00 0.00 68 1000.8
20260509045036 48 0.0 0.0 0.00 0.00 0.00 67 1000.9
20260509044019 48 0.0 0.0 0.00 0.00 0.00 67 1001.1
20260509043018 49 0.0 0.0 0.00 0.00 0.00 66 1001.2
20260509042027 49 0.0 0.0 0.00 0.00 0.00 65 1001.4
20260509041037 50 0.0 0.0 0.00 0.00 0.00 66 1001.4
20260509040019 50 0.0 0.0 0.00 0.00 0.00 63 1001.4
20260509035027 50 0.0 0.0 0.00 0.00 0.00 64 1001.5
20260509034039 50 0.0 0.0 0.00 0.00 0.00 62 1001.7
20260509033028 51 0.0 0.0 0.00 0.00 0.00 61 1001.7
20260509032027 51 0.0 0.0 0.00 0.00 0.00 61 1001.7
20260509031019 51 0.0 0.0 0.00 0.00 0.00 61 1001.8
20260509030019 52 0.0 0.0 0.00 0.00 0.00 57 1001.8
20260509025019 52 0.0 0.0 0.00 0.00 0.00 59 1001.9
20260509024044 53 0.0 0.0 0.00 0.00 0.00 58 1002.0
20260509023048 53 0.0 0.0 0.00 0.00 0.00 56 1001.9
20260509022018 54 0.0 0.0 0.00 0.00 0.00 55 1002.0
20260509021019 54 0.0 0.0 0.00 0.00 0.00 53 1002.0
20260509020039 55 0.0 0.0 0.00 0.00 0.00 51 1001.8